Prescott, AZ

5:22 AM MST on December 06, 2016 (GMT -0700)
Love

Weather History for KPRC - July, 2012

Change the Weather History Date:

Saturday, July 21, 2012

  Actual Average Record
Temperature  
Mean Temperature 77 °F 76 °F  
Max Temperature 88 °F 89 °F 99 °F (2006)
Min Temperature 66 °F 63 °F 54 °F (1973)
Degree Days  
Heating Degree Days 0    
Month to date heating degree days  
Since 1 July heating degree days  
Cooling Degree Days 12    
Month to date cooling degree days  
Year to date cooling degree days  
Growing Degree Days 27 (Base 50)    
Moisture  
Dew Point 54 °F    
Average Humidity 48    
Maximum Humidity 79    
Minimum Humidity 27    
Precipitation  
Precipitation 0.05 in 0.08 in 2.01 in (1950)
Month to date precipitation 1.23  
Year to date precipitation 6.16  
Sea Level Pressure  
Sea Level Pressure 29.98 in    
Wind  
Wind Speed 7 mph (SE)    
Max Wind Speed 18 mph    
Max Gust Speed 28 mph    
Visibility 10 miles    
Events Rain , Thunderstorm    
T = Trace of Precipitation, MM = Missing Value Source: NWS Daily Summary

Daily Weather History Graph

Daily Weather History Graph

Search for Another Location

Airport or City:

Trip Planner

Search our weather history database for the weather conditions in past years. The results will help you decide how hot, cold, wet, or windy it might be!

Date:

Astronomy

Jul. 21, 2012 Rise Set
Actual Time 5:32 AM MST 7:39 PM MST
Civil Twilight 5:03 AM MST 8:07 PM MST
Nautical Twilight 4:29 AM MST 8:42 PM MST
Astronomical Twilight 3:51 AM MST 9:19 PM MST
Moon 8:08 AM MST (7/21) 9:04 PM MST (7/21)
Length of Visible Light 15h 03m
Length of Day
14h 07m
Waxing Crescent, 7% of the Moon is Illuminated
Jul 21
Waxing Crescent
Jul 26
First Quarter
Aug 1
Full
Aug 9
Last Quarter
Aug 17
New

Hourly Weather History & Observations

Time (MST) Temp. Heat Index Dew Point Humidity Pressure Visibility Wind Dir Wind Speed Gust Speed Precip Events Conditions
12:53 AM 73.9 °F - 52.0 °F 46% 29.95 in 10.0 mi SE 10.4 mph 19.6 mph 0.00 in   Overcast
1:53 AM 73.0 °F - 52.0 °F 48% 29.95 in 10.0 mi Calm Calm - N/A   Scattered Clouds
2:53 AM 72.0 °F - 52.0 °F 49% 29.94 in 10.0 mi East 4.6 mph - N/A   Clear
3:53 AM 69.1 °F - 54.0 °F 58% 29.93 in 10.0 mi Calm Calm - N/A   Clear
4:53 AM 68.0 °F - 54.0 °F 61% 29.94 in 10.0 mi SSE 3.5 mph - N/A   Scattered Clouds
5:53 AM 66.0 °F - 55.9 °F 70% 29.99 in 10.0 mi SW 3.5 mph - N/A   Clear
6:53 AM 68.0 °F - 55.9 °F 65% 29.99 in 10.0 mi SSW 3.5 mph - N/A   Mostly Cloudy
7:53 AM 75.0 °F - 54.0 °F 48% 29.99 in 10.0 mi Calm Calm - N/A   Scattered Clouds
8:53 AM 80.1 °F - 52.0 °F 38% 29.99 in 10.0 mi Calm Calm - N/A   Scattered Clouds
9:53 AM 82.9 °F - 50.0 °F 32% 29.99 in 10.0 mi SSE 8.1 mph 16.1 mph N/A   Scattered Clouds
10:53 AM 84.9 °F - 50.0 °F 30% 29.97 in 10.0 mi SE 9.2 mph 23.0 mph N/A   Scattered Clouds
11:53 AM 86.0 °F - 51.1 °F 30% 29.94 in 10.0 mi SSE 15.0 mph 24.2 mph N/A   Mostly Cloudy
12:53 PM 88.0 °F - 50.0 °F 27% 29.91 in 10.0 mi SE 15.0 mph 24.2 mph N/A   Mostly Cloudy
1:38 PM 86.0 °F - 48.2 °F 27% 30.18 in 10.0 mi SE 11.5 mph - N/A Thunderstorm Thunderstorm
1:53 PM 87.1 °F - 50.0 °F 28% 29.90 in 10.0 mi Variable 6.9 mph 17.3 mph N/A Thunderstorm Thunderstorm
2:53 PM 82.9 °F - 52.0 °F 34% 29.90 in 10.0 mi NE 12.7 mph - N/A Thunderstorm Thunderstorm
3:17 PM 84.2 °F - 51.8 °F 33% 30.16 in 10.0 mi NNE 11.5 mph - N/A   Mostly Cloudy
3:53 PM 82.0 °F 81.2 °F 53.1 °F 37% 29.89 in 10.0 mi NNW 17.3 mph - N/A   Mostly Cloudy
4:53 PM 80.1 °F - 50.0 °F 35% 29.91 in 10.0 mi North 12.7 mph - N/A   Scattered Clouds
5:53 PM 78.1 °F - 57.0 °F 48% 29.92 in 10.0 mi NW 10.4 mph - N/A   Scattered Clouds
6:53 PM 75.0 °F - 55.9 °F 51% 29.94 in 10.0 mi WNW 4.6 mph - N/A   Mostly Cloudy
7:53 PM 73.9 °F - 55.9 °F 53% 29.95 in 10.0 mi Variable 3.5 mph - N/A   Overcast
8:17 PM 71.6 °F - 57.2 °F 60% 30.23 in 10.0 mi SSE 18.4 mph 27.6 mph 0.00 in Rain , Thunderstorm Light Thunderstorms and Rain
8:53 PM 70.0 °F - 55.9 °F 61% 29.99 in 10.0 mi SE 15.0 mph 20.7 mph 0.00 in Thunderstorm Thunderstorm
9:53 PM 66.9 °F - 59.0 °F 76% 29.99 in 6.0 mi Calm Calm - 0.02 in Rain Light Rain
10:53 PM 66.9 °F - 60.1 °F 79% 29.96 in 10.0 mi SSE 5.8 mph - 0.03 in   Scattered Clouds
11:53 PM 66.9 °F - 60.1 °F 79% 29.96 in 10.0 mi Calm Calm - N/A   Clear